Date String (YYYY-MM-DD hh:mm:ss) UTC,Instrument flags,absolute air pressure of the measurement (hPa),sample flow rate (lpm),inlet stack bypass flow (lpm),air temperature of the measurement (°C),ambient temperature measured by the external sensor (°C),aerosol sample conditioner tube jacket temperature (°C),OPC LED temperature (°C),internal box temperature (°C),relative humidity of the measurement (%),span deviation,mass concentration of particles derived from Lorenz-Mie calculation of OPC scattering (μg/m³),mass concentration of particles derived from Lorenz-Mie calculation of OPC scattering (μg/m³),mass concentration of particles derived from Lorenz-Mie calculation of OPC scattering (μg/m³)
DateTimeUTC,F1_M11,P_M11,Q1_M11,Q2_M11,T1_M11,T2_M11,T3_M11,T4_M11,T5_M11,U1_M11,ZSPAN_M11,X2_M11,X0_M11,X1_M11
2023-09-21 20:00:00,SystemResetWarning,0828.2,5.00,000.00,027.9,026.9,000.0,036.1,029.6,21.2,0000.0,0003.94,0012.04,0002.82
2023-09-21 20:01:00,SystemResetWarning,0828.1,4.99,000.00,027.8,025.8,000.0,036.0,029.3,21.0,0000.0,0003.93,0011.54,0002.82
2023-09-21 20:02:00,SystemResetWarning,0828.1,5.01,000.00,027.7,024.3,000.0,036.0,028.8,21.1,0000.0,0003.90,0011.24,0002.79
2023-09-21 20:03:00,SystemResetWarning,0828.1,5.00,000.00,027.6,024.0,000.0,035.9,028.8,21.7,0000.0,0003.86,0010.74,0002.78
2023-09-21 20:04:00,SystemResetWarning,0828.1,5.01,000.00,027.5,024.3,000.0,035.9,028.9,23.0,0000.0,0003.84,0010.67,0002.78
2023-09-21 20:05:00,SystemResetWarning,0828.1,5.01,000.00,027.5,024.6,000.0,035.9,028.9,22.5,0000.0,0003.85,0010.79,0002.77
2023-09-21 20:06:00,SystemResetWarning,0828.1,5.01,000.00,027.5,025.0,000.0,035.9,029.0,22.0,0000.0,0003.83,0010.18,0002.77
2023-09-21 20:07:00,SystemResetWarning,0828.1,4.99,000.00,027.5,025.4,000.0,035.9,029.1,21.3,0000.0,0003.81,0010.04,0002.77
2023-09-21 20:08:00,SystemResetWarning,0828.1,4.99,000.00,027.6,025.7,000.0,035.9,029.2,21.5,0000.0,0003.80,0010.05,0002.78
2023-09-21 20:09:00,SystemResetWarning,0828.1,5.00,000.00,027.6,026.0,000.0,035.9,029.2,21.5,0000.0,0003.80,0010.27,0002.77
2023-09-21 20:10:00,SystemResetWarning,0828.1,5.00,000.00,027.7,026.2,000.0,035.9,029.3,21.6,0000.0,0003.74,0010.28,0002.76
2023-09-21 20:11:00,SystemResetWarning,0828.1,5.01,000.00,027.7,026.5,000.0,036.0,029.4,21.5,0000.0,0003.68,0010.22,0002.74
2023-09-21 20:12:00,SystemResetWarning,0828.1,5.01,000.00,027.8,026.7,000.0,036.0,029.5,21.1,0000.0,0003.65,0010.50,0002.72
2023-09-21 20:13:00,SystemResetWarning,0828.1,5.00,000.00,027.8,026.8,000.0,036.0,029.5,20.8,0000.0,0003.69,0011.15,0002.74
2023-09-21 20:14:00,SystemResetWarning,0828.1,4.98,000.00,027.8,026.2,000.0,036.0,029.4,21.3,0000.0,0003.67,0011.25,0002.73
2023-09-21 20:15:00,SystemResetWarning,0828.1,5.01,000.00,027.7,025.0,000.0,036.0,029.1,20.7,0000.0,0003.65,0011.79,0002.71
2023-09-21 20:16:00,SystemResetWarning,0828.1,5.01,000.00,027.7,024.8,000.0,036.0,029.1,20.1,0000.0,0003.60,0012.38,0002.70
2023-09-21 20:17:00,SystemResetWarning,0828.1,5.00,000.00,027.6,025.0,000.0,036.0,029.1,20.0,0000.0,0003.58,0012.20,0002.69
2023-09-21 20:18:00,SystemResetWarning,0828.1,4.99,000.00,027.6,025.3,000.0,036.0,029.1,20.0,0000.0,0003.57,0011.72,0002.67
2023-09-21 20:19:00,SystemResetWarning,0828.0,5.00,000.00,027.7,025.7,000.0,036.0,029.2,20.5,0000.0,0003.59,0011.77,0002.67
2023-09-21 20:20:00,SystemResetWarning,0828.1,5.01,000.00,027.7,025.9,000.0,036.0,029.3,20.7,0000.0,0003.61,0012.50,0002.67
2023-09-21 20:21:00,SystemResetWarning,0828.0,5.00,000.00,027.7,026.2,000.0,036.0,029.4,20.6,0000.0,0003.63,0012.46,0002.68
2023-09-21 20:22:00,SystemResetWarning,0828.1,5.00,000.00,027.8,026.4,000.0,036.0,029.5,20.7,0000.0,0003.66,0012.83,0002.69
2023-09-21 20:23:00,SystemResetWarning,0828.1,5.00,000.00,027.8,026.6,000.0,036.1,029.5,20.6,0000.0,0003.70,0012.99,0002.69
2023-09-21 20:24:00,SystemResetWarning,0828.1,5.00,000.00,027.9,026.8,000.0,036.1,029.6,20.7,0000.0,0003.67,0012.85,0002.68
2023-09-21 20:25:00,SystemResetWarning,0828.1,4.99,000.00,027.9,026.5,000.0,036.1,029.6,20.7,0000.0,0003.67,0013.04,0002.69
2023-09-21 20:26:00,SystemResetWarning,0828.0,5.00,000.00,027.8,025.0,000.0,036.1,029.0,20.2,0000.0,0003.69,0013.43,0002.70
2023-09-21 20:27:00,SystemResetWarning,0828.0,5.01,000.00,027.7,024.0,000.0,036.0,028.8,20.8,0000.0,0003.72,0012.36,0002.72
2023-09-21 20:28:00,SystemResetWarning,0827.9,5.01,000.00,027.6,024.1,000.0,036.0,028.9,20.5,0000.0,0003.75,0012.40,0002.73
2023-09-21 20:29:00,SystemResetWarning,0828.0,5.00,000.00,027.5,024.5,000.0,036.0,028.9,20.3,0000.0,0003.76,0012.48,0002.73
2023-09-21 20:30:00,SystemResetWarning,0828.0,5.00,000.00,027.5,024.9,000.0,036.0,029.0,20.5,0000.0,0003.73,0013.18,0002.73
2023-09-21 20:31:00,SystemResetWarning,0828.0,5.00,000.00,027.5,025.2,000.0,036.0,029.1,20.2,0000.0,0003.68,0012.43,0002.72
2023-09-21 20:32:00,SystemResetWarning,0828.0,4.99,000.00,027.6,025.6,000.0,036.0,029.2,20.3,0000.0,0003.71,0012.40,0002.73
2023-09-21 20:33:00,SystemResetWarning,0828.0,5.01,000.00,027.6,025.9,000.0,036.0,029.2,20.2,0000.0,0003.69,0011.82,0002.75
2023-09-21 20:34:00,SystemResetWarning,0828.0,5.00,000.00,027.7,026.2,000.0,036.0,029.3,20.2,0000.0,0003.66,0011.48,0002.76
2023-09-21 20:35:00,SystemResetWarning,0828.0,5.00,000.00,027.7,026.4,000.0,036.0,029.4,20.6,0000.0,0003.68,0010.68,0002.77
2023-09-21 20:36:00,SystemResetWarning,0827.9,5.00,000.00,027.8,026.6,000.0,036.0,029.5,20.6,0000.0,0003.72,0011.29,0002.79
2023-09-21 20:37:00,SystemResetWarning,0827.9,4.99,000.00,027.8,026.8,000.0,036.1,029.5,21.0,0000.0,0003.71,0011.23,0002.78
2023-09-21 20:38:00,SystemResetWarning,0827.8,5.00,000.00,027.9,026.8,000.0,036.1,029.6,20.8,0000.0,0003.69,0011.04,0002.77
2023-09-21 20:39:00,SystemResetWarning,0827.8,4.98,000.00,027.8,025.6,000.0,036.1,029.2,20.9,0000.0,0003.68,0011.08,0002.76
2023-09-21 20:40:00,SystemResetWarning,0827.8,5.02,000.00,027.7,024.2,000.0,036.0,028.9,21.3,0000.0,0003.66,0011.07,0002.75
2023-09-21 20:41:00,SystemResetWarning,0827.8,5.01,000.00,027.6,024.1,000.0,036.0,028.9,21.1,0000.0,0003.66,0010.69,0002.76
2023-09-21 20:42:00,SystemResetWarning,0827.7,4.98,000.00,027.5,024.4,000.0,036.0,028.9,21.1,0000.0,0003.68,0010.57,0002.76
2023-09-21 20:43:00,SystemResetWarning,0827.8,4.99,000.00,027.5,024.7,000.0,036.0,029.0,21.5,0000.0,0003.63,0010.05,0002.74
2023-09-21 20:44:00,SystemResetWarning,0827.8,5.01,000.00,027.5,025.1,000.0,036.0,029.0,21.5,0000.0,0003.59,0009.95,0002.72
2023-09-21 20:45:00,SystemResetWarning,0827.8,5.01,000.00,027.6,025.5,000.0,036.0,029.1,21.4,0000.0,0003.60,0010.30,0002.73
2023-09-21 20:46:00,SystemResetWarning,0827.7,5.00,000.00,027.6,025.8,000.0,036.0,029.2,21.1,0000.0,0003.62,0010.40,0002.73
2023-09-21 20:47:00,SystemResetWarning,0827.7,4.99,000.00,027.6,026.1,000.0,036.0,029.3,21.2,0000.0,0003.57,0010.14,0002.71
2023-09-21 20:48:00,SystemResetWarning,0827.8,5.00,000.00,027.7,026.4,000.0,036.0,029.4,21.2,0000.0,0003.53,0009.20,0002.72
2023-09-21 20:49:00,SystemResetWarning,0827.8,5.00,000.00,027.7,026.6,000.0,036.0,029.4,21.3,0000.0,0003.54,0009.12,0002.72
2023-09-21 20:50:00,SystemResetWarning,0827.8,5.00,000.00,027.8,026.8,000.0,036.1,029.5,21.6,0000.0,0003.52,0009.36,0002.72
2023-09-21 20:51:00,SystemResetWarning,0827.8,5.00,000.00,027.8,026.6,000.0,036.1,029.5,21.3,0000.0,0003.51,0009.43,0002.72
2023-09-21 20:52:00,SystemResetWarning,0827.8,5.00,000.00,027.8,025.1,000.0,036.0,029.1,21.8,0000.0,0003.49,0009.36,0002.70
2023-09-21 20:53:00,SystemResetWarning,0827.8,5.00,000.00,027.6,024.0,000.0,036.0,028.9,21.2,0000.0,0003.45,0008.53,0002.69
2023-09-21 20:54:00,SystemResetWarning,0827.7,5.00,000.00,027.6,024.1,000.0,035.9,028.9,21.2,0000.0,0003.43,0008.20,0002.67
2023-09-21 20:55:00,SystemResetWarning,0827.8,5.01,000.00,027.5,024.4,000.0,035.9,028.9,21.3,0000.0,0003.43,0008.32,0002.67
2023-09-21 20:56:00,SystemResetWarning,0827.8,4.99,000.00,027.5,024.8,000.0,035.9,029.0,21.3,0000.0,0003.43,0008.17,0002.67
2023-09-21 20:57:00,SystemResetWarning,0827.8,4.99,000.00,027.5,025.2,000.0,035.9,029.1,21.0,0000.0,0003.41,0008.12,0002.65
2023-09-21 20:58:00,SystemResetWarning,0827.8,5.00,000.00,027.6,025.6,000.0,035.9,029.2,21.1,0000.0,0003.38,0008.33,0002.63
2023-09-21 20:59:00,SystemResetWarning,0827.7,5.00,000.00,027.6,025.9,000.0,035.9,029.2,21.0,0000.0,0003.41,0008.97,0002.62
